Terminal Aerodrome Forecast
Issued by NWS Mt. Holly, NJ

Home | Current Version | Previous Version | Text Only | Print | Product List | Glossary On
Versions: 1 2 3 4 5 6 7 8 9 10 11 12 13 14 15 16 17 18 19 20 21 22 23 24 25 26 27 28 29 30 31 32 33 34 35 36
000
FTUS41 KPHI 272000 AAA
TAFPHL
TAF AMD
KPHL 272031Z 2721/2824 34015G23KT P6SM BKN100
     FM272300 31012KT P6SM SCT025
     FM281500 33015G25KT P6SM FEW025
     FM282300 33013KT P6SM FEW025=

USA.gov is the U.S. government's official web portal to all federal, state and local government web resources and services.